Location: Seattle
(47.6064°N, 122.3308°W)
Time: 09:55:35
(UTC-08:00)

Transit 4A - Visible Passes

Search period start: 04 December 2020 00:00
Search period end: 14 December 2020 00:00
Orbit: 862 x 982 km, 66.8° (Epoch: 03 December)

Date Brightness Start Highest point End Pass type
(mag) Time Alt. Az. Time Alt. Az. Time Alt. Az.
04 Dec 10.2 05:45:23 10° SSE 05:50:33 27° ESE 05:55:46 10° NE visible
05 Dec 9.5 05:53:53 10° S 05:59:38 38° ESE 06:05:30 10° NE visible
06 Dec 8.8 06:02:39 10° S 06:08:48 54° ESE 06:15:03 10° NE visible
06 Dec 11.0 16:50:40 10° WNW 16:54:06 15° WSW 16:57:30 10° SW visible
07 Dec 10.8 04:29:31 10° SE 04:32:44 14° E 04:35:59 10° ENE visible
07 Dec 8.3 06:11:43 10° SSW 06:18:03 75° ESE 06:24:29 10° NE visible
08 Dec 10.3 04:37:06 10° SSE 04:41:43 21° ESE 04:46:21 10° ENE visible
08 Dec 8.0 06:21:00 10° SW 06:27:23 82° NW 06:33:51 10° NNE visible
09 Dec 9.7 04:45:20 10° SSE 04:50:45 31° ESE 04:56:14 10° NE visible
09 Dec 8.0 06:30:28 10° SW 06:36:47 61° NW 06:43:11 10° NNE visible
10 Dec 9.1 04:53:56 10° S 04:59:52 43° ESE 05:05:53 10° NE visible
10 Dec 8.3 06:40:08 10° WSW 06:46:16 46° NW 06:52:27 10° NNE visible
11 Dec 10.8 03:22:35 10° ESE 03:23:59 11° E 03:25:24 10° E visible
11 Dec 8.4 05:02:50 10° SSW 05:09:04 61° ESE 05:15:24 10° NE visible
11 Dec 8.6 06:49:59 10° WSW 06:55:50 36° NW 07:01:43 10° NNE visible
12 Dec 10.4 03:29:39 12° SE 03:32:54 17° ESE 03:36:45 10° ENE visible
12 Dec 8.0 05:13:19 17° SSW 05:18:20 83° ESE 05:24:48 10° NE visible
12 Dec 8.9 07:00:01 10° W 07:05:29 29° NW 07:10:58 10° NNE visible
13 Dec 9.8 03:40:46 23° ESE 03:41:53 24° ESE 03:46:53 10° NE visible
13 Dec 7.9 05:24:24 31° SW 05:27:41 74° NW 05:34:09 10° NNE visible
13 Dec 9.1 07:10:11 10° W 07:15:12 23° NNW 07:20:14 10° NNE visible
